This is the latest recevied weather packets stored in our database for station/object KS5S. If no packets are shown the sender has not sent any weather packets the latest 10 day(s).
| Time | Temp. | Humidity | Pressure | Rain* | Wind** | Luminosity | Snow |
|---|---|---|---|---|---|---|---|
| 1777757217 | 25.56° C | 39% | 1017.7 hPa | 0 mm | - | 711 W/m² | - |
| 1777756915 | 25° C | 38% | 1017.7 hPa | 0 mm | - | 747 W/m² | - |
| 1777756610 | 25° C | 34% | 1018.1 hPa | 0 mm | - | 633 W/m² | - |
| 1777756308 | 24.44° C | 35% | 1018 hPa | 0 mm | - | 161 W/m² | - |
| 1777756005 | 25° C | 38% | 1018 hPa | 0 mm | - | 809 W/m² | - |
| 1777755702 | 25° C | 36% | 1018.1 hPa | 0 mm | - | 798 W/m² | - |
| 1777755399 | 25.56° C | 38% | 1018.2 hPa | 0 mm | - | 805 W/m² | - |
| 1777755095 | 25° C | 34% | 1018.3 hPa | 0 mm | - | 825 W/m² | - |
| 1777754792 | 24.44° C | 37% | 1018.4 hPa | 0 mm | - | 831 W/m² | - |
| 1777754490 | 25° C | 36% | 1018.2 hPa | 0 mm | - | 845 W/m² | - |
| 1777754186 | 25° C | 35% | 1018.3 hPa | 0 mm | - | 856 W/m² | - |
| 1777753884 | 24.44° C | 33% | 1018.3 hPa | 0 mm | - | 863 W/m² | - |
| 1777753579 | 24.44° C | 32% | 1018.5 hPa | 0 mm | - | 878 W/m² | - |
| 1777753278 | 24.44° C | 36% | 1018.3 hPa | 0 mm | - | 887 W/m² | - |
| 1777752974 | 24.44° C | 40% | 1018.5 hPa | 0 mm | - | 896 W/m² | - |
| 1777752670 | 24.44° C | 37% | 1018.3 hPa | 0 mm | - | 903 W/m² | - |
| 1777752366 | 23.89° C | 37% | 1018.6 hPa | 0 mm | - | 911 W/m² | - |
| 1777752064 | 24.44° C | 40% | 1018.5 hPa | 0 mm | - | 919 W/m² | - |
| 1777751761 | 23.89° C | 36% | 1018.5 hPa | 0 mm | - | 921 W/m² | - |
| 1777751457 | 23.89° C | 36% | 1018.3 hPa | 0 mm | - | 934 W/m² | - |
| 1777751149 | 23.89° C | 37% | 1018.6 hPa | 0 mm | - | 939 W/m² | - |
| 1777750845 | 23.89° C | 37% | 1018.6 hPa | 0 mm | - | 949 W/m² | - |
| 1777750542 | 24.44° C | 39% | 1018.7 hPa | 0 mm | - | 953 W/m² | - |
| 1777750239 | 23.89° C | 38% | 1018.7 hPa | 0 mm | - | 103 W/m² | - |
| 1777749934 | 23.33° C | 36% | 1018.7 hPa | 0 mm | - | 479 W/m² | - |
* Rain latest hour (hover to see other rain measurements)
** Current wind speed in m/s (hover to see current wind gust speed)